Crane Lake, MN

3:08 AM CDT on May 24, 2017 (GMT -0500)
Crane Lake

Weather History for KCDD - March, 2013

Change the Weather History Date:

Thursday, March 28, 2013

  Actual Average Record
Temperature  
Mean Temperature 26 °F -  
Max Temperature 50 °F 38 °F 55 °F (1998)
Min Temperature 3 °F 19 °F -7 °F (2014)
Degree Days  
Heating Degree Days 38    
Moisture  
Dew Point 10 °F    
Average Humidity 59    
Maximum Humidity 92    
Minimum Humidity 22    
Precipitation  
Precipitation 0.00 in - - ()
Sea Level Pressure  
Sea Level Pressure 30.29 in    
Wind  
Wind Speed 0 mph (North)    
Max Wind Speed 6 mph    
Max Gust Speed -    
Visibility 10 miles    
Events      
Averages and records for this station are not official NWS values.
T = Trace of Precipitation, MM = Missing Value Source: NWS Daily Summary

Daily Weather History Graph

Daily Weather History Graph

Search for Another Location

Airport or City:

Trip Planner

Search our weather history database for the weather conditions in past years. The results will help you decide how hot, cold, wet, or windy it might be!

Date:

Astronomy

Mar. 28, 2013 Rise Set
Actual Time 6:55 AM CDT 7:34 PM CDT
Civil Twilight 6:24 AM CDT 8:06 PM CDT
Nautical Twilight 5:46 AM CDT 8:43 PM CDT
Astronomical Twilight 5:07 AM CDT 9:23 PM CDT
Moon 9:39 PM CDT (3/28) 7:15 AM CDT (3/28)
Length of Visible Light 13h 42m
Length of Day
12h 39m
Full, 98% of the Moon is Illuminated
Mar 28
Full
Apr 2
Last Quarter
Apr 10
New
Apr 18
First Quarter
Apr 25
Full

Hourly Weather History & Observations

Time (CDT) Temp. Windchill Dew Point Humidity Pressure Visibility Wind Dir Wind Speed Gust Speed Precip Events Conditions
12:14 AM 14.0 °F - 10.4 °F 86% 30.31 in 10.0 mi Calm Calm - N/A   Clear
12:34 AM 12.2 °F - 8.6 °F 85% 30.32 in 10.0 mi Calm Calm - N/A   Clear
12:54 AM 12.2 °F - 8.6 °F 85% 30.32 in 10.0 mi Calm Calm - N/A   Clear
1:13 AM 12.2 °F - 8.6 °F 85% 30.32 in 10.0 mi Calm Calm - N/A   Clear
1:34 AM 10.4 °F - 8.6 °F 92% 30.32 in 10.0 mi Calm Calm - N/A   Clear
1:54 AM 10.4 °F - 6.8 °F 85% 30.32 in 10.0 mi Calm Calm - N/A   Clear
2:14 AM 10.4 °F - 6.8 °F 85% 30.33 in 10.0 mi Calm Calm - N/A   Clear
2:33 AM 10.4 °F - 6.8 °F 85% 30.33 in 10.0 mi Calm Calm - N/A   Clear
2:53 AM 8.6 °F - 5.0 °F 85% 30.33 in 10.0 mi Calm Calm - N/A   Clear
3:14 AM 8.6 °F - 5.0 °F 85% 30.33 in 10.0 mi Calm Calm - N/A   Clear
3:34 AM 8.6 °F - 3.2 °F 79% 30.33 in 10.0 mi Calm Calm - N/A   Clear
3:54 AM 8.6 °F - 3.2 °F 79% 30.32 in 10.0 mi Calm Calm - N/A   Clear
4:14 AM 6.8 °F - 3.2 °F 85% 30.33 in 10.0 mi Calm Calm - N/A   Clear
4:33 AM 6.8 °F - 3.2 °F 85% 30.32 in 10.0 mi Calm Calm - N/A   Clear
4:54 AM 6.8 °F - 1.4 °F 79% 30.32 in 10.0 mi Calm Calm - N/A   Clear
5:14 AM 6.8 °F - 1.4 °F 79% 30.32 in 10.0 mi Calm Calm - N/A   Clear
5:33 AM 5.0 °F - 1.4 °F 85% 30.32 in 10.0 mi Calm Calm - N/A   Clear
5:53 AM 5.0 °F - 1.4 °F 85% 30.33 in 10.0 mi Calm Calm - N/A   Clear
6:14 AM 5.0 °F - 1.4 °F 85% 30.33 in 10.0 mi Calm Calm - N/A   Clear
6:34 AM 5.0 °F - 1.4 °F 85% 30.33 in 10.0 mi Calm Calm - N/A   Clear
6:54 AM 3.2 °F - -0.4 °F 85% 30.33 in 10.0 mi Calm Calm - N/A   Clear
7:14 AM 3.2 °F - -0.4 °F 85% 30.33 in 10.0 mi Calm Calm - N/A   Clear
7:34 AM 3.2 °F - -0.4 °F 85% 30.33 in 10.0 mi Calm Calm - N/A   Clear
7:54 AM 5.0 °F - 1.4 °F 85% 30.33 in 10.0 mi Calm Calm - N/A   Clear
8:14 AM 6.8 °F - 3.2 °F 85% 30.34 in 10.0 mi Calm Calm - N/A   Clear
8:34 AM 12.2 °F - 8.6 °F 85% 30.33 in 10.0 mi Calm Calm - N/A   Clear
8:54 AM 15.8 °F - 10.4 °F 79% 30.33 in 10.0 mi Calm Calm - N/A   Clear
9:14 AM 21.2 °F - 17.6 °F 86% 30.33 in 10.0 mi Calm Calm - N/A   Clear
9:34 AM 23.0 °F - 17.6 °F 80% 30.33 in 10.0 mi Calm Calm - N/A   Clear
9:53 AM 28.4 °F - 21.2 °F 74% 30.33 in 10.0 mi Calm Calm - N/A   Clear
10:14 AM 32.0 °F - 21.2 °F 64% 30.33 in 10.0 mi Calm Calm - N/A   Clear
10:34 AM 35.6 °F - 21.2 °F 56% 30.32 in 10.0 mi Calm Calm - N/A   Clear
10:54 AM 39.2 °F - 19.4 °F 45% 30.32 in 10.0 mi Calm Calm - N/A   Clear
11:13 AM 42.8 °F - 21.2 °F 42% 30.32 in 10.0 mi Calm Calm - N/A   Clear
11:33 AM 44.6 °F - 23.0 °F 43% 30.32 in 10.0 mi Calm Calm - N/A   Clear
11:54 AM 44.6 °F 42.2 °F 19.4 °F 37% 30.31 in 10.0 mi NNE 4.6 mph - N/A   Clear
12:14 PM 46.4 °F 45.2 °F 17.6 °F 32% 30.31 in 10.0 mi North 3.5 mph - N/A   Clear
12:33 PM 46.4 °F 45.2 °F 15.8 °F 29% 30.31 in 10.0 mi NNE 3.5 mph - N/A   Clear
12:53 PM 46.4 °F - 15.8 °F 29% 30.30 in 10.0 mi Calm Calm - N/A   Clear
1:14 PM 48.2 °F - 14.0 °F 25% 30.29 in 10.0 mi NNE 5.8 mph - N/A   Clear
1:34 PM 46.4 °F 43.5 °F 12.2 °F 25% 30.29 in 10.0 mi NNW 5.8 mph - N/A   Clear
1:54 PM 46.4 °F - 14.0 °F 27% 30.28 in 10.0 mi Calm Calm - N/A   Clear
2:13 PM 48.2 °F - 12.2 °F 24% 30.28 in 10.0 mi NNE 3.5 mph - N/A   Clear
2:33 PM 50.0 °F - 15.8 °F 26% 30.27 in 10.0 mi Calm Calm - N/A   Clear
2:55 PM 50.0 °F - 15.8 °F 26% 30.27 in 10.0 mi WNW 4.6 mph - N/A   Clear
3:13 PM 48.2 °F - 10.4 °F 22% 30.26 in 10.0 mi Calm Calm - N/A   Clear
3:33 PM 48.2 °F - 10.4 °F 22% 30.26 in 10.0 mi Calm Calm - N/A   Clear
3:53 PM 50.0 °F - 12.2 °F 22% 30.25 in 10.0 mi SSW 3.5 mph - N/A   Clear
4:14 PM 48.2 °F - 10.4 °F 22% 30.25 in 10.0 mi Calm Calm - N/A   Clear
4:33 PM 48.2 °F - 12.2 °F 24% 30.25 in 10.0 mi North 4.6 mph - N/A   Clear
4:54 PM 50.0 °F - 12.2 °F 22% 30.24 in 10.0 mi Calm Calm - N/A   Clear
5:14 PM 50.0 °F - 12.2 °F 22% 30.24 in 10.0 mi North 4.6 mph - N/A   Clear
5:34 PM 48.2 °F - 10.4 °F 22% 30.24 in 10.0 mi Calm Calm - N/A   Clear
5:54 PM 46.4 °F 43.5 °F 10.4 °F 23% 30.24 in 10.0 mi North 5.8 mph - N/A   Clear
6:13 PM 46.4 °F - 10.4 °F 23% 30.24 in 10.0 mi Calm Calm - N/A   Clear
6:33 PM 44.6 °F - 10.4 °F 25% 30.24 in 10.0 mi Calm Calm - N/A   Clear
6:53 PM 44.6 °F - 10.4 °F 25% 30.24 in 10.0 mi Calm Calm - N/A   Clear
7:13 PM 37.4 °F - 6.8 °F 28% 30.25 in 10.0 mi Calm Calm - N/A   Clear
7:33 PM 32.0 °F - 5.0 °F 32% 30.25 in 10.0 mi Calm Calm - N/A   Clear
7:53 PM 28.4 °F - 8.6 °F 43% 30.25 in 10.0 mi Calm Calm - N/A   Clear
8:13 PM 26.6 °F - 10.4 °F 51% 30.26 in 10.0 mi Calm Calm - N/A   Clear
8:34 PM 24.8 °F - 10.4 °F 54% 30.26 in 10.0 mi Calm Calm - N/A   Clear
8:53 PM 24.8 °F - 12.2 °F 59% 30.26 in 10.0 mi Calm Calm - N/A   Clear
9:13 PM 23.0 °F - 14.0 °F 68% 30.26 in 10.0 mi Calm Calm - N/A   Clear
9:33 PM 21.2 °F - 12.2 °F 68% 30.26 in 10.0 mi Calm Calm - N/A   Clear
9:53 PM 21.2 °F - 12.2 °F 68% 30.26 in 10.0 mi Calm Calm - N/A   Clear
10:13 PM 19.4 °F - 12.2 °F 74% 30.26 in 10.0 mi Calm Calm - N/A   Clear
10:33 PM 19.4 °F - 12.2 °F 74% 30.26 in 10.0 mi Calm Calm - N/A   Clear
10:53 PM 19.4 °F - 12.2 °F 74% 30.26 in 10.0 mi Calm Calm - N/A   Clear
11:13 PM 17.6 °F - 12.2 °F 79% 30.26 in 10.0 mi Calm Calm - N/A   Clear
11:33 PM 17.6 °F - 12.2 °F 79% 30.26 in 10.0 mi Calm Calm - N/A   Clear
11:53 PM 17.6 °F - 12.2 °F 79% 30.26 in 10.0 mi Calm Calm - N/A   Clear